Regional Weather Roundup
Issued by NWS Sterling, VA

Home | Current Version | Previous Version | Text Only | Print | Product List | Glossary On
Versions: 1 2 3 4 5 6 7 8 9 10 11 12 13 14 15 16 17 18 19 20 21 22 23 24 25 26 27 28 29 30 31 32 33 34 35 36 37 38 39 40 41 42 43 44 45 46 47 48 49 50
000
ASUS41 KLWX 142210
RWRLWX

REGIONAL WEATHER ROUNDUP
NATIONAL WEATHER SERVICE BALTIMORE MD/WASHINGTON DC
500 PM EST SUN FEB 14 2016

Note: "FAIR" indicates few or no clouds below 12,000 feet
with no significant weather and/or obstructions to visibility.
 TC=TEMPERATURE CELSIUS

 * =Non NWS site. Station does not report precipitation (e.g. rain,
    snow, etc.), thunder, or fog.

DCZ001-MDZ009-015-VAZ040>042-051-053>054-142300-
WASHINGTON METRO

CITY           SKY/WX    TMP DP  RH WIND       PRES   REMARKS
WASHINGTON NAT MOCLDY    24  -1  33 E3        30.51F
DULLES         CLOUDY    22  -3  33 CALM      30.47F
ANDREWS AFB    CLOUDY    23  -4  30 CALM      30.47F
FT BELVOIR     FAIR      24  -1  34 SE5       30.49F
QUANTICO       FAIR      25   0  33 E3        30.51F
COLLEGE PARK*  FAIR      25  -4  28 CALM      30.49F
LEESBURG*      FAIR      25   3  39 E3        30.46F
GAITHERSBURG*  CLOUDY    19  -2  38 CALM      30.49F

$$

MDZ006>007-011-014-142300-
BALTIMORE METRO

CITY           SKY/WX    TMP DP  RH WIND       PRES   REMARKS
BWI AIRPORT    CLOUDY    22  -3  33 VRB5      30.49F
MD SCIENCE CTR   N/A     22  -2  35 MISG      30.54R
MARTIN STATE   PTCLDY    21   0  39 W5        30.54S
ANNAPOLIS      PTCLDY   N/A N/A N/A E9        30.51F
FORT MEADE*    CLOUDY    23  -2  33 CALM      30.52F

$$

MDZ012-015-019>023-142300-
MARYLAND EASTERN SHORE

CITY           SKY/WX    TMP DP  RH WIND       PRES   REMARKS
OCEAN CITY     CLEAR     22   4  46 NE5       30.52R
SALISBURY      CLEAR     22  -2  35 N6        30.52R
BAY BRIDGE AP*   N/A     21  -2  35 CALM      30.53F
CAMBRIDGE*     CLEAR     21   0  39 N3        30.52F
EASTON*        MOCLDY    21   0  39 NE5       30.56S

$$

MDZ017>025-142300-
SOUTHERN MARYLAND

CITY           SKY/WX    TMP DP  RH WIND       PRES   REMARKS
PATUXENT RIVER MOCLDY    22   2  42 E5        30.52S
ST INIGOES     CLEAR     22   5  48 E7        30.52R
LEONARDTOWN*     N/A    N/A N/A N/A MISG      30.53

$$

MDZ003>005-142300-
NORTH CENTRAL MARYLAND

CITY           SKY/WX    TMP DP  RH WIND       PRES   REMARKS
FREDERICK*     CLEAR     21   3  45 CALM      30.50F
HAGERSTOWN APT CLOUDY    18   0  45 E7        30.43F
WESTMINSTER*   CLOUDY    18   7  62 CALM      30.44F

$$

MDZ501>502-142300-
WESTERN MARYLAND

CITY           SKY/WX    TMP DP  RH WIND       PRES   REMARKS
OAKLAND*       CLOUDY    12   0  57 SE13      30.15F WCI  -3
CUMBERLAND*    CLOUDY    23   1  39 E5        30.42F

$$

VAZ025>031-142300-
SHENANDOAH VALLEY

CITY           SKY/WX    TMP DP  RH WIND       PRES   REMARKS
WINCHESTER*    FAIR      25   1  36 E7        30.41S
FRONT ROYAL*   FAIR      27   1  33 E5        30.38F
LURAY*         FAIR      25   0  33 CALM      30.38S
NEW MARKET*    FAIR      24   0  35 CALM      30.36S
STAUNTON*      FAIR      28  -1  28 SE5       30.38R
WAYNESBORO*    FAIR      22  -6  28 SE10      30.34R WCI  11

$$

WVZ021-048>050-054>055-142300-
EASTERN WEST VIRGINIA PANHANDLE

CITY           SKY/WX    TMP DP  RH WIND       PRES   REMARKS
MARTINSBURG    FAIR      21  -1  38 E6        30.43F
PETERSBURG*    FAIR      25   1  35 CALM      30.35R

$$

VAZ036>039-050-142300-
CENTRAL FOOTHILLS

CITY           SKY/WX    TMP DP  RH WIND       PRES   REMARKS
CHARLOTTESVILL FAIR      25  -3  29 SE8       30.43S WCI  16
CULPEPER*      FAIR      24  -2  31 CALM      30.47F
ORANGE*        FAIR      27   0  31 E5        30.46S
GORDONSVILLE*  FAIR      25  -2  30 S3        30.44S
WARRENTON*     FAIR      26   3  37 SE3       30.45F

$$

VAZ055>057-142300-
NORTH AND CENTRAL PIEDMONT

CITY           SKY/WX    TMP DP  RH WIND       PRES   REMARKS
FREDERICKSBRG* FAIR      26   0  33 CALM      30.48F
STAFFORD*      FAIR      25  -3  30 E6        30.51F

$$

NCZ024-NYZ072-PAZ021-071-VAZ022-071-142300-
OTHER REGIONAL OBSERVATIONS

CITY           SKY/WX    TMP DP  RH WIND       PRES   REMARKS
NEW YORK CITY  CLEAR     15 -16  24 VRB5      30.51R
PHILADELPHIA   PTCLDY    19 -11  26 W7        30.54R
PITTSBURGH     CLOUDY    17  -1  45 E8        30.32S WCI   7
ROANOKE        CLOUDY    24  -3  30 S13       30.38S WCI  12
RICHMOND       CLOUDY    25  -3  29 CALM      30.48F
RALEIGH        CLOUDY    29  -3  25 SE6       30.45F

$$

ANZ530>537-142300-
MARINE OBSERVATIONS

STATION/POSITION TIME  TEMP    WIND        PRES
                       AIR SEA DIR/SP/G
                 (UTC) (F)     (DEG/KT/KT) (MB)
THOMAS PT LIGHT  2200   21 35   70/  7/  9 1034.0F
BALT KEY BRIDGE  2100   22     360/  5/  7 1033.8R
COVE POINT       2100   19      40/  6/  8 1034.1R
LEWISETTA        2100   23 33   60/  5/  7 1033.3R
SOLOMONS ISLAND  2100   22 38  110/  7/  9   N/A
PINEY POINT      2100          310/  3/  4   N/A

$$




USA.gov is the U.S. government's official web portal to all federal, state and local government web resources and services.